User: anonymous   Login
Location: Lone Wolf Observatory
(41.0360°N, 89.2260°W)
Time: 16:41:15
(UTC-06:00)
Language:

Cosmos 1378 Rocket - Orbit

View from above orbital plane
View from above orbital plane
View from above satellite
View from above satellite

Ground track
Ground track

The orbit data is extracted from the following two-line orbital elements,

1 13272U 82059B   17350.01470554  .00000078  00000-0  64146-5 0  9992
2 13272  82.5097 328.3165 0017261 234.6084 125.3520 14.84624076918873
Epoch (UTC): 16 December 2017 00:21:10
Eccentricity: 0.0017261
inclination: 82.5097°
perigee height: 603 km
apogee height: 627 km
right ascension of ascending node: 328.3165°
argument of perigee: 234.6084°
revolutions per day: 14.84624076
mean anomaly at epoch: 125.3520°
orbit number at epoch: 91887

The dashed part of the orbit path shows where the satellite is in the earth's shadow,  

DLR